GNZ416 EDDF-EDDH

Flight info

Callsign GNZ416
Flight time 0h 43m
Altitude 41000
Route MARUN7F/25C MARUN Y150 TOLGI DCT SAS P605 NOLGO
Aircraft A359/H-S/C

Departure

Time 2026-05-07 10:09
Airport Frankfurt Main Airport (EDDF)

Arrival

Time 2026-05-07 10:53
Airport Hamburg Helmut Schmidt Airport (EDDH)
Time Latitude Longitude Altitude Speed Heading
2026-05-07 09:33 50.05065 8.58749 382 ft 0 kts 341°
2026-05-07 10:03 50.05049 8.58758 381 ft 4 kts 342°
2026-05-07 10:04 50.05017 8.58775 380 ft 5 kts 336°
2026-05-07 10:04 50.04988 8.58816 377 ft 6 kts 291°
2026-05-07 10:04 50.04986 8.58842 377 ft 0 kts 225°
2026-05-07 10:04 50.04992 8.58858 377 ft 3 kts 249°
2026-05-07 10:05 50.04992 8.58859 377 ft 0 kts 249°
2026-05-07 10:06 50.04979 8.58799 377 ft 11 kts 251°
2026-05-07 10:07 50.04936 8.58692 377 ft 12 kts 205°
2026-05-07 10:07 50.04829 8.58715 370 ft 18 kts 162°
2026-05-07 10:07 50.04722 8.58756 365 ft 15 kts 180°
2026-05-07 10:07 50.04669 8.58754 365 ft 0 kts 183°
2026-05-07 10:08 50.04655 8.58753 365 ft 9 kts 183°
2026-05-07 10:08 50.04534 8.58652 366 ft 17 kts 219°
2026-05-07 10:08 50.04471 8.58522 371 ft 11 kts 245°
2026-05-07 10:08 50.04412 8.58289 376 ft 54 kts 251°
2026-05-07 10:09 50.04192 8.57354 366 ft 126 kts 250°
2026-05-07 10:09 50.03813 8.55831 580 ft 161 kts 250°
2026-05-07 10:09 50.03429 8.54219 1281 ft 161 kts 252°
2026-05-07 10:09 50.03063 8.52627 1983 ft 161 kts 252°
2026-05-07 10:10 50.02753 8.50944 2491 ft 166 kts 266°
2026-05-07 10:10 50.02789 8.49103 2828 ft 179 kts 278°
2026-05-07 10:10 50.02946 8.47090 3192 ft 195 kts 279°
2026-05-07 10:10 50.03129 8.44923 3588 ft 214 kts 279°
2026-05-07 10:11 50.03478 8.42629 4150 ft 224 kts 299°
2026-05-07 10:11 50.04465 8.40759 4810 ft 231 kts 321°
2026-05-07 10:11 50.05763 8.39186 5329 ft 247 kts 325°
2026-05-07 10:11 50.07149 8.37589 5899 ft 260 kts 326°
2026-05-07 10:12 50.08608 8.35906 6535 ft 263 kts 325°
2026-05-07 10:12 50.10055 8.34216 6912 ft 263 kts 325°
2026-05-07 10:12 50.11711 8.33038 7252 ft 264 kts 350°
2026-05-07 10:12 50.13567 8.33156 7839 ft 273 kts 13°
2026-05-07 10:13 50.15358 8.33971 8747 ft 274 kts 15°
2026-05-07 10:13 50.17174 8.34837 9577 ft 278 kts 15°
2026-05-07 10:13 50.19031 8.35725 10358 ft 283 kts 15°
2026-05-07 10:13 50.20937 8.36632 10892 ft 297 kts 15°
2026-05-07 10:14 50.22962 8.37592 11334 ft 314 kts 15°
2026-05-07 10:14 50.25118 8.38615 11760 ft 330 kts 15°
2026-05-07 10:14 50.27370 8.39684 12155 ft 347 kts 15°
2026-05-07 10:14 50.29702 8.40832 12516 ft 364 kts 17°
2026-05-07 10:15 50.32144 8.42140 12931 ft 378 kts 17°
2026-05-07 10:15 50.34623 8.43496 13573 ft 384 kts 17°
2026-05-07 10:15 50.37152 8.44884 14287 ft 387 kts 17°
2026-05-07 10:15 50.39682 8.46270 14966 ft 391 kts 17°
2026-05-07 10:16 50.42245 8.47674 15619 ft 395 kts 17°
2026-05-07 10:16 50.44859 8.49106 16265 ft 399 kts 18°
2026-05-07 10:16 50.47491 8.50520 16892 ft 402 kts 16°
2026-05-07 10:16 50.50147 8.51823 17506 ft 406 kts 15°
2026-05-07 10:17 50.52869 8.53119 18114 ft 410 kts 15°
2026-05-07 10:17 50.55574 8.54403 18699 ft 413 kts 15°
2026-05-07 10:17 50.58337 8.55718 19273 ft 417 kts 15°
2026-05-07 10:17 50.61125 8.57052 19838 ft 420 kts 15°
2026-05-07 10:18 50.63905 8.58387 20386 ft 424 kts 15°
2026-05-07 10:18 50.66716 8.59736 20919 ft 428 kts 15°
2026-05-07 10:18 50.69558 8.61105 21441 ft 431 kts 15°
2026-05-07 10:18 50.72446 8.62498 21959 ft 435 kts 15°
2026-05-07 10:19 50.75330 8.63892 22459 ft 438 kts 15°
2026-05-07 10:19 50.78222 8.65326 22942 ft 442 kts 19°
2026-05-07 10:19 50.81030 8.67461 23396 ft 448 kts 31°
2026-05-07 10:19 50.83469 8.70435 23843 ft 453 kts 43°
2026-05-07 10:20 50.85564 8.74216 24305 ft 457 kts 51°
2026-05-07 10:20 50.87477 8.78213 24762 ft 460 kts 53°
2026-05-07 10:20 50.89388 8.82306 25194 ft 462 kts 53°
2026-05-07 10:20 50.91280 8.86339 25608 ft 465 kts 52°
2026-05-07 10:21 50.93238 8.90473 26021 ft 467 kts 52°
2026-05-07 10:21 50.95190 8.94575 26417 ft 470 kts 52°
2026-05-07 10:21 50.97151 8.98700 26811 ft 471 kts 52°
2026-05-07 10:21 50.99115 9.02838 27180 ft 474 kts 52°
2026-05-07 10:22 51.01121 9.07060 27535 ft 476 kts 52°
2026-05-07 10:22 51.03113 9.11255 27880 ft 478 kts 52°
2026-05-07 10:22 51.05108 9.15467 28211 ft 480 kts 52°
2026-05-07 10:22 51.07104 9.19692 28526 ft 482 kts 52°
2026-05-07 10:23 51.09298 9.23661 28813 ft 484 kts 43°
2026-05-07 10:23 51.11984 9.26967 29108 ft 486 kts 31°
2026-05-07 10:23 51.14960 9.29313 29413 ft 486 kts 20°
2026-05-07 10:23 51.18207 9.30784 29821 ft 485 kts 12°
2026-05-07 10:24 51.21492 9.31894 30257 ft 483 kts 11°
2026-05-07 10:24 51.24791 9.32950 30641 ft 483 kts 11°
2026-05-07 10:24 51.28068 9.34027 30928 ft 484 kts 11°
2026-05-07 10:25 51.34617 9.36274 30979 ft 484 kts 12°
2026-05-07 10:25 51.41199 9.38574 30983 ft 484 kts 12°
2026-05-07 10:26 51.47733 9.40862 30983 ft 485 kts 12°
2026-05-07 10:26 51.54309 9.43169 30984 ft 486 kts 12°
2026-05-07 10:27 51.60914 9.45491 30987 ft 486 kts 12°
2026-05-07 10:27 51.67464 9.47802 30988 ft 486 kts 12°
2026-05-07 10:28 51.74050 9.50132 30982 ft 484 kts 12°
2026-05-07 10:28 51.77293 9.51333 30791 ft 478 kts 14°
2026-05-07 10:28 51.80506 9.52795 30538 ft 476 kts 17°
2026-05-07 10:28 51.83628 9.54526 30289 ft 477 kts 20°
2026-05-07 10:29 51.86688 9.56544 30039 ft 477 kts 24°
2026-05-07 10:29 51.89659 9.58818 29791 ft 477 kts 26°
2026-05-07 10:29 51.92601 9.61237 29541 ft 478 kts 27°
2026-05-07 10:30 51.98495 9.66182 29041 ft 479 kts 28°
2026-05-07 10:30 52.01444 9.68666 28791 ft 479 kts 28°
2026-05-07 10:30 52.04411 9.71158 28540 ft 480 kts 28°
2026-05-07 10:30 52.07345 9.73614 28289 ft 480 kts 27°
2026-05-07 10:31 52.10317 9.76096 27826 ft 481 kts 27°
2026-05-07 10:31 52.13301 9.78577 27345 ft 478 kts 27°
2026-05-07 10:31 52.16244 9.81028 26868 ft 474 kts 27°
2026-05-07 10:31 52.19125 9.83437 26398 ft 470 kts 27°
2026-05-07 10:32 52.22058 9.85758 25919 ft 467 kts 24°
2026-05-07 10:32 52.25040 9.87829 25441 ft 463 kts 21°
2026-05-07 10:32 52.28055 9.89624 24963 ft 460 kts 18°
2026-05-07 10:32 52.31086 9.91142 24488 ft 457 kts 15°
2026-05-07 10:33 52.34108 9.92491 24016 ft 454 kts 14°
2026-05-07 10:33 52.37132 9.93797 23541 ft 450 kts 14°
2026-05-07 10:33 52.40126 9.95088 23068 ft 447 kts 14°
2026-05-07 10:33 52.43113 9.96386 22592 ft 444 kts 14°
2026-05-07 10:34 52.46094 9.97691 22113 ft 440 kts 14°
2026-05-07 10:34 52.49020 9.98979 21639 ft 437 kts 14°
2026-05-07 10:34 52.51957 10.00277 21161 ft 434 kts 14°
2026-05-07 10:34 52.54834 10.01552 20688 ft 431 kts 14°
2026-05-07 10:35 52.57699 10.02827 20214 ft 428 kts 14°
2026-05-07 10:35 52.60609 10.03709 19717 ft 424 kts
2026-05-07 10:35 52.63509 10.03649 19258 ft 420 kts 357°
2026-05-07 10:35 52.66424 10.03429 18781 ft 417 kts 356°
2026-05-07 10:36 52.69276 10.03196 18308 ft 412 kts 356°
2026-05-07 10:36 52.72113 10.02975 17833 ft 407 kts 356°
2026-05-07 10:36 52.74941 10.02764 17355 ft 403 kts 356°
2026-05-07 10:36 52.77695 10.02566 16883 ft 398 kts 356°
2026-05-07 10:37 52.80468 10.02373 16403 ft 394 kts 356°
2026-05-07 10:37 52.83160 10.02021 15918 ft 390 kts 348°
2026-05-07 10:37 52.85718 10.00758 15453 ft 385 kts 339°
2026-05-07 10:37 52.88213 9.99254 14979 ft 381 kts 339°
2026-05-07 10:38 52.90696 9.97732 14501 ft 378 kts 339°
2026-05-07 10:38 52.93137 9.96231 14026 ft 375 kts 339°
2026-05-07 10:38 52.95569 9.94735 13550 ft 372 kts 339°
2026-05-07 10:38 52.97992 9.93243 13077 ft 378 kts 339°
2026-05-07 10:39 53.00445 9.91734 12500 ft 378 kts 339°
2026-05-07 10:39 53.02902 9.90220 11871 ft 377 kts 339°
2026-05-07 10:39 53.05302 9.88742 11245 ft 360 kts 340°
2026-05-07 10:39 53.07577 9.87338 10625 ft 344 kts 340°
2026-05-07 10:40 53.09777 9.85977 9998 ft 330 kts 340°
2026-05-07 10:40 53.11901 9.84662 9335 ft 320 kts 341°
2026-05-07 10:40 53.13948 9.83399 8706 ft 310 kts 341°
2026-05-07 10:40 53.15906 9.82193 8213 ft 299 kts 341°
2026-05-07 10:41 53.17810 9.81018 7713 ft 289 kts 342°
2026-05-07 10:41 53.19667 9.79866 7211 ft 280 kts 342°
2026-05-07 10:41 53.21468 9.78748 6708 ft 273 kts 342°
2026-05-07 10:41 53.23227 9.77654 6205 ft 266 kts 342°
2026-05-07 10:42 53.24925 9.76598 5707 ft 258 kts 342°
2026-05-07 10:42 53.26585 9.75565 5203 ft 252 kts 342°
2026-05-07 10:42 53.28195 9.74562 4707 ft 247 kts 343°
2026-05-07 10:42 53.29789 9.73570 4206 ft 243 kts 342°
2026-05-07 10:43 53.31356 9.72596 3704 ft 240 kts 342°
2026-05-07 10:43 53.32883 9.71551 3214 ft 240 kts 331°
2026-05-07 10:43 53.34105 9.69674 3007 ft 239 kts 306°
2026-05-07 10:43 53.34732 9.67169 2993 ft 236 kts 282°
2026-05-07 10:44 53.34698 9.64421 2987 ft 239 kts 255°
2026-05-07 10:44 53.33982 9.61918 2984 ft 237 kts 231°
2026-05-07 10:44 53.32941 9.59816 2988 ft 237 kts 231°
2026-05-07 10:44 53.32203 9.57387 2975 ft 237 kts 262°
2026-05-07 10:45 53.32341 9.54663 2979 ft 233 kts 296°
2026-05-07 10:45 53.33305 9.52574 2980 ft 229 kts 329°
2026-05-07 10:45 53.34758 9.51724 2979 ft 225 kts
2026-05-07 10:45 53.36287 9.52161 2989 ft 223 kts 20°
2026-05-07 10:46 53.37730 9.53012 2990 ft 219 kts 23°
2026-05-07 10:46 53.39158 9.53948 2990 ft 220 kts 23°
2026-05-07 10:46 53.40559 9.54930 2983 ft 219 kts 32°
2026-05-07 10:46 53.41756 9.56516 2985 ft 219 kts 46°
2026-05-07 10:47 53.42824 9.58321 2988 ft 218 kts 47°
2026-05-07 10:47 53.43864 9.60175 2987 ft 216 kts 48°
2026-05-07 10:47 53.44861 9.62037 2987 ft 217 kts 49°
2026-05-07 10:47 53.45848 9.63950 2988 ft 216 kts 50°
2026-05-07 10:48 53.46814 9.65871 2988 ft 216 kts 51°
2026-05-07 10:48 53.47790 9.67841 2987 ft 219 kts 53°
2026-05-07 10:48 53.48746 9.69794 2987 ft 218 kts 50°
2026-05-07 10:48 53.49714 9.71763 2988 ft 217 kts 51°
2026-05-07 10:49 53.50665 9.73703 2988 ft 217 kts 51°
2026-05-07 10:49 53.51624 9.75662 2988 ft 217 kts 51°
2026-05-07 10:49 53.52580 9.77613 2902 ft 217 kts 51°
2026-05-07 10:49 53.53550 9.79586 2644 ft 218 kts 50°
2026-05-07 10:50 53.54512 9.81540 2365 ft 213 kts 52°
2026-05-07 10:50 53.55416 9.83376 2093 ft 199 kts 52°
2026-05-07 10:50 53.56269 9.85105 1826 ft 188 kts 53°
2026-05-07 10:50 53.57080 9.86755 1577 ft 176 kts 52°
2026-05-07 10:51 53.57840 9.88299 1341 ft 165 kts 51°
2026-05-07 10:51 53.58538 9.89716 1137 ft 156 kts 52°
2026-05-07 10:51 53.59270 9.91202 945 ft 173 kts 54°
2026-05-07 10:51 53.60052 9.92789 706 ft 177 kts 52°
2026-05-07 10:52 53.60841 9.94378 465 ft 175 kts 53°
2026-05-07 10:52 53.61577 9.95869 194 ft 162 kts 49°
2026-05-07 10:52 53.62320 9.97365 98 ft 158 kts 51°
2026-05-07 10:52 53.62910 9.98579 67 ft 105 kts 52°
2026-05-07 10:53 53.63212 9.99187 67 ft 38 kts 50°
2026-05-07 10:53 53.63290 9.99457 67 ft 12 kts 86°
2026-05-07 10:53 53.63289 9.99527 67 ft 4 kts 94°
2026-05-07 10:53 53.63288 9.99548 67 ft 0 kts 94°
2026-05-07 10:54 53.63286 9.99573 67 ft 15 kts 96°
2026-05-07 10:55 53.63279 9.99713 67 ft 10 kts 81°
2026-05-07 10:55 53.63318 9.99832 67 ft 12 kts 52°
2026-05-07 10:55 53.63376 9.99953 67 ft 13 kts 50°
2026-05-07 10:55 53.63425 10.00073 67 ft 12 kts 78°
2026-05-07 10:56 53.63384 10.00181 67 ft 11 kts 158°
2026-05-07 10:56 53.63309 10.00203 67 ft 6 kts 175°
2026-05-07 10:56 53.63276 10.00241 67 ft 5 kts 112°
2026-05-07 10:56 53.63278 10.00307 67 ft 4 kts 84°
2026-05-07 10:57 53.63281 10.00364 67 ft 0 kts 85°
2026-05-07 10:57 53.63281 10.00363 67 ft 0 kts 85°